Overview Statistics Trail Chart Weather Telemetry Raw packets
 

This is the latest recevied weather packets stored in our database for station/object EA3IK-1. If no packets are shown the sender has not sent any weather packets the latest 10 day(s).

<< 1 2 3 4 5 6 >>
Time Temp. Humidity Pressure Rain* Wind** Luminosity Snow
1788549453 28.89° C 64% 1018.8 hPa 0 mm - - -
1788548552 29.44° C 65% 1018.7 hPa 0 mm - - -
1788547651 29.44° C 65% 1018.3 hPa 0 mm - - -
1788546750 29.44° C 65% 1018.2 hPa 0 mm - - -
1788545850 30° C 66% 1018 hPa 0 mm - - -
1788544949 30.56° C 66% 1017.7 hPa 0 mm - - -
1788544048 31.67° C 65% 1017.6 hPa 0 mm - - -
1788543147 31.67° C 64% 1017.3 hPa 0 mm - - -
1788542246 32.78° C 62% 1017.2 hPa 0 mm - - -
1788541345 33.33° C 60% 1017 hPa 0 mm - - -
1788540444 33.89° C 60% 1016.8 hPa 0 mm - - -
1788539543 33.89° C 60% 1016.7 hPa 0 mm - - -
1788538643 33.89° C 61% 1016.6 hPa 0 mm - - -
1788537742 33.89° C 62% 1016.8 hPa 0 mm - - -
1788536841 33.33° C 64% 1016.8 hPa 0 mm - - -
1788535940 33.89° C 63% 1016.7 hPa 0 mm - - -
1788535039 35° C 61% 1016.7 hPa 0 mm - - -
1788534138 35° C 61% 1016.6 hPa 0 mm - - -
1788533237 35.56° C 58% 1016.6 hPa 0 mm - - -
1788532337 36.11° C 58% 1016.6 hPa 0 mm - - -
1788531436 36.67° C 58% 1016.5 hPa 0 mm - - -
1788530535 36.67° C 58% 1016.6 hPa 0 mm - - -
1788529634 36.67° C 56% 1016.6 hPa 0 mm - - -
1788528733 37.22° C 55% 1016.7 hPa 0 mm - - -
1788527832 37.22° C 53% 1016.8 hPa 0 mm - - -

* Rain latest hour (hover to see other rain measurements)
** Current wind speed in m/s (hover to see current wind gust speed)